EW1671 Weather Reports


time (UTC)temp
F
wind
direction
speed
knots
gust
knots
rain 1hr
in
rain 24hr
in
rain mn
in
humidity
%
barometer
mb
20260504050524 44 182 2.6 6.1 0.00 0.00 0.00 70 1013.2
20260504045521 45 195 3.5 6.1 0.00 0.00 0.00 67 1013.3
20260504045021 45 183 3.5 6.1 0.00 0.00 0.00 67 1013.3
20260504044520 45 197 2.6 5.2 0.00 0.00 0.00 67 1013.4
20260504044019 45 193 1.7 4.3 0.00 0.00 0.00 68 1013.4
20260504043519 45 203 2.6 5.2 0.00 0.00 0.00 67 1013.3
20260504043020 45 205 2.6 5.2 0.00 0.00 0.00 67 1013.3
20260504042518 45 199 2.6 5.2 0.00 0.00 0.00 68 1013.3
20260504042015 45 193 0.9 4.3 0.00 0.00 0.00 68 1013.4
20260504041524 45 191 0.9 4.3 0.00 0.00 0.00 67 1013.4
20260504041012 44 192 0.9 4.3 0.00 0.00 0.00 69 1013.4
20260504040512 44 189 2.6 4.3 0.00 0.00 0.00 70 1013.3
20260504040010 45 205 2.6 6.1 0.00 0.00 0.00 70 1013.4
20260504035510 44 180 1.7 6.1 0.00 0.00 0.00 70 1013.4
20260504035009 44 199 2.6 6.1 0.00 0.00 0.00 71 1013.4
20260504034512 44 199 1.7 5.2 0.00 0.00 0.00 72 1013.4
20260504034010 44 192 1.7 7.0 0.00 0.00 0.00 71 1013.4
20260504033509 44 210 1.7 7.0 0.00 0.00 0.00 70 1013.4
20260504033008 44 222 3.5 7.8 0.00 0.00 0.00 70 1013.4
20260504032508 44 207 2.6 7.8 0.00 0.00 0.00 71 1013.4
20260504032008 44 201 2.6 6.1 0.00 0.00 0.00 72 1013.4
20260504031509 44 193 3.5 6.1 0.00 0.00 0.00 72 1013.4
20260504031007 44 268 0.9 1.7 0.00 0.00 0.00 72 1013.4
20260504030507 46 278 0.0 1.7 0.00 0.00 0.00 69 1013.3
20260504030007 47 278 0.9 1.7 0.00 0.00 0.00 64 1013.2
20260504025508 46 278 0.9 1.7 0.00 0.00 0.00 64 1013.2
20260504025008 47 278 0.0 1.7 0.00 0.00 0.00 64 1013.1
20260504024508 47 278 0.0 1.7 0.00 0.00 0.00 63 1013.1
20260504024009 47 278 0.0 1.7 0.00 0.00 0.00 63 1013.1
20260504023507 47 278 0.0 1.7 0.00 0.00 0.00 63 1013.0
20260504023006 47 278 0.0 0.9 0.00 0.00 0.00 62 1013.1
20260504022506 47 278 0.0 0.9 0.00 0.00 0.00 63 1013.1
20260504022005 47 278 0.0 0.9 0.00 0.00 0.00 63 1013.1
20260504021506 47 278 0.0 0.9 0.00 0.00 0.00 62 1013.1
20260504021008 47 278 0.0 0.9 0.00 0.00 0.00 62 1013.0
20260504020505 48 278 0.0 1.7 0.00 0.00 0.00 62 1013.1
20260504020005 47 278 0.0 1.7 0.00 0.00 0.00 62 1013.0
20260504015505 47 278 0.0 1.7 0.00 0.00 0.00 61 1013.0
20260504015008 47 278 0.0 1.7 0.00 0.00 0.00 62 1012.9
20260504014507 48 278 0.0 1.7 0.00 0.00 0.00 62 1012.9
20260504014004 48 278 0.0 1.7 0.00 0.00 0.00 62 1012.8
20260504013504 48 278 0.0 1.7 0.00 0.00 0.00 61 1012.9
20260504013004 48 278 0.0 1.7 0.00 0.00 0.00 60 1012.9
20260504012504 48 278 0.0 1.7 0.00 0.00 0.00 59 1012.8
20260504012004 48 278 0.0 1.7 0.00 0.00 0.00 60 1012.8
20260504011504 49 278 0.0 1.7 0.00 0.00 0.00 60 1012.7
20260504011003 49 278 0.0 1.7 0.00 0.00 0.00 60 1012.7
20260504010506 49 278 0.0 2.6 0.00 0.00 0.00 59 1012.7
20260504010003 49 278 0.0 2.6 0.00 0.00 0.00 59 1012.7
20260504005503 49 280 0.0 1.7 0.00 0.00 0.00 59 1012.6
20260504005003 50 280 0.0 2.6 0.00 0.00 0.00 59 1012.7
20260504004507 50 280 0.0 2.6 0.00 0.00 0.00 58 1012.6
20260504004003 51 280 0.0 2.6 0.00 0.00 0.00 57 1012.6
20260504003502 51 280 0.0 1.7 0.00 0.00 0.00 56 1012.5
20260504003002 52 280 0.0 1.7 0.00 0.00 0.00 53 1012.5
20260504002502 52 280 0.0 1.7 0.00 0.00 0.00 53 1012.5
20260504002003 53 280 0.9 1.7 0.00 0.00 0.00 52 1012.4
20260504001502 53 280 0.0 4.3 0.00 0.00 0.00 51 1012.4
20260504001002 54 280 0.9 4.3 0.00 0.00 0.00 51 1012.4
20260504000503 54 303 0.9 3.5 0.00 0.00 0.00 50 1012.4
20260504000002 55 281 0.9 5.2 0.00 0.00 0.00 50 1012.4
20260503235501 55 284 0.0 5.2 0.00 0.00 0.00 48 1012.3
20260503235001 55 291 1.7 5.2 0.00 0.00 0.00 49 1012.3
20260503234502 56 276 0.9 7.0 0.00 0.00 0.00 48 1012.2
20260503234105 56 270 1.7 7.0 0.00 0.00 0.00 47 1012.1
20260503233600 56 296 1.7 7.0 0.00 0.00 0.00 47 1012.1
20260503233059 56 311 1.7 8.7 0.00 0.00 0.00 47 1012.1
20260503232559 57 301 0.9 8.7 0.00 0.00 0.00 46 1012.1
20260503232059 57 270 0.9 4.3 0.00 0.00 0.00 47 1012.1
20260503231559 57 296 0.9 5.2 0.00 0.00 0.00 46 1012.1
20260503231059 58 303 2.6 9.6 0.00 0.00 0.00 44 1012.0
20260503230602 58 314 4.3 9.6 0.00 0.00 0.00 44 1011.9
20260503225600 59 318 2.6 9.6 0.00 0.00 0.00 43 1011.8
20260503225058 59 321 2.6 9.6 0.00 0.00 0.00 43 1011.8
20260503224557 59 314 3.5 10.4 0.00 0.00 0.00 42 1011.9
20260503224058 60 326 4.3 11.3 0.00 0.00 0.00 41 1011.9
20260503223558 60 332 3.5 10.4 0.00 0.00 0.00 43 1011.9
20260503223156 60 359 4.3 10.4 0.00 0.00 0.00 41 1012.0
20260503222558 60 269 3.5 8.7 0.00 0.00 0.00 42 1012.0
20260503222057 61 307 2.6 7.0 0.00 0.00 0.00 43 1011.9
20260503221600 60 299 2.6 6.1 0.00 0.00 0.00 43 1012.0
20260503221056 60 290 2.6 8.7 0.00 0.00 0.00 44 1012.1
20260503220555 60 318 3.5 8.7 0.00 0.00 0.00 44 1012.1
20260503220055 60 286 2.6 8.7 0.00 0.00 0.00 45 1012.2
20260503215556 59 293 1.7 7.8 0.00 0.00 0.00 46 1012.1
20260503215055 59 272 2.6 7.8 0.00 0.00 0.00 45 1012.1
20260503214554 59 312 0.9 10.4 0.00 0.00 0.00 43 1012.0
20260503214055 60 257 3.5 10.4 0.00 0.00 0.00 43 1012.1
20260503213554 61 328 6.1 10.4 0.00 0.00 0.00 42 1012.1
20260503213053 60 285 3.5 9.6 0.00 0.00 0.00 44 1012.1
20260503212553 60 297 4.3 9.6 0.00 0.00 0.00 45 1012.1
20260503212053 60 318 1.7 9.6 0.00 0.00 0.00 45 1012.1
20260503211552 60 344 4.3 9.6 0.00 0.00 0.00 42 1012.2
20260503211052 61 307 1.7 9.6 0.00 0.00 0.00 46 1012.1
20260503210552 60 54 2.6 9.6 0.00 0.00 0.00 47 1012.1
20260503210052 60 261 3.5 9.6 0.00 0.00 0.00 46 1012.2
20260503205555 60 330 3.5 11.3 0.00 0.00 0.00 47 1012.2
20260503205052 60 287 4.3 11.3 0.00 0.00 0.00 45 1012.2
20260503204555 60 293 2.6 10.4 0.00 0.00 0.00 47 1012.2
20260503204051 60 293 5.2 13.9 0.00 0.00 0.00 44 1012.2
20260503203551 60 324 4.3 13.9 0.00 0.00 0.00 46 1012.2
20260503203056 60 282 5.2 13.9 0.00 0.00 0.00 44 1012.2
20260503202550 60 333 2.6 9.6 0.00 0.00 0.00 46 1012.3
20260503202052 60 314 4.3 11.3 0.00 0.00 0.00 46 1012.3
20260503201552 61 301 3.5 11.3 0.00 0.00 0.00 45 1012.3
20260503201050 61 308 3.5 7.0 0.00 0.00 0.00 45 1012.4
20260503200549 61 350 3.5 9.6 0.00 0.00 0.00 49 1012.4
20260503200054 60 341 3.5 9.6 0.00 0.00 0.00 48 1012.4
20260503195551 59 321 1.7 8.7 0.00 0.00 0.00 48 1012.4
20260503195049 59 289 2.6 12.2 0.00 0.00 0.00 47 1012.5
20260503194555 58 3 3.5 12.2 0.00 0.00 0.00 45 1012.7
20260503194046 58 336 4.3 11.3 0.00 0.00 0.00 45 1012.7
20260503193546 59 332 4.3 12.2 0.00 0.00 0.00 46 1012.8
20260503193044 59 359 3.5 12.2 0.00 0.00 0.00 48 1012.7
20260503192544 58 291 3.5 11.3 0.00 0.00 0.00 47 1012.8
20260503192043 58 326 5.2 14.8 0.00 0.00 0.00 45 1012.9
20260503191546 58 336 7.0 15.6 0.00 0.00 0.00 44 1013.1
20260503191043 59 335 5.2 15.6 0.00 0.00 0.00 46 1013.1
20260503190542 58 336 7.0 14.8 0.00 0.00 0.00 46 1013.0
20260503190045 58 299 4.3 10.4 0.00 0.00 0.00 49 1013.1
20260503185542 58 326 2.6 9.6 0.00 0.00 0.00 46 1013.1
20260503185041 58 318 3.5 13.0 0.00 0.00 0.00 47 1013.1
20260503184541 58 349 2.6 13.0 0.00 0.00 0.00 46 1013.2
20260503184041 58 326 7.0 15.6 0.00 0.00 0.00 46 1013.2
20260503183541 58 345 9.6 15.6 0.00 0.00 0.00 44 1013.4
20260503183040 58 8 8.7 13.0 0.00 0.00 0.00 45 1013.3
20260503182539 58 316 2.6 13.0 0.00 0.00 0.00 51 1013.4
20260503182039 58 343 6.1 13.0 0.00 0.00 0.00 45 1013.5
20260503181539 58 315 6.1 13.0 0.00 0.00 0.00 46 1013.4
20260503181038 58 351 4.3 11.3 0.00 0.00 0.00 51 1013.5
20260503180538 57 328 6.1 11.3 0.00 0.00 0.00 45 1013.5
20260503180041 58 319 5.2 12.2 0.00 0.00 0.00 50 1013.6
20260503175535 57 326 4.3 12.2 0.00 0.00 0.00 48 1013.6
20260503175035 57 276 3.5 13.0 0.00 0.00 0.00 49 1013.7
20260503174533 56 326 4.3 13.0 0.00 0.00 0.00 48 1013.7
20260503174032 56 261 0.9 12.2 0.00 0.00 0.00 48 1013.7
20260503173531 56 271 6.1 15.6 0.00 0.00 0.00 48 1013.7
20260503173030 56 318 6.1 15.6 0.00 0.00 0.00 46 1013.7
20260503172529 56 334 6.1 14.8 0.00 0.00 0.00 47 1013.8
20260503172028 55 291 5.2 13.0 0.00 0.00 0.00 54 1013.9
20260503171527 55 305 4.3 17.4 0.00 0.00 0.00 49 1013.9
20260503171031 54 331 2.6 17.4 0.00 0.00 0.00 51 1013.9
20260503170527 54 299 4.3 12.2 0.00 0.00 0.00 50 1014.0
20260503151011 50 243 6.1 12.2 0.00 0.00 0.00 56 1015.2
20260503150510 50 345 2.6 15.6 0.00 0.00 0.00 58 1015.2
20260503140109 47 317 3.5 13.9 0.00 0.00 0.00 63 1015.4
20260503131049 44 357 7.8 13.0 0.00 0.00 0.00 67 1015.5
20260503130551 44 345 6.1 11.3 0.00 0.00 0.00 66 1015.4
20260503110530 36 282 0.9 4.3 0.00 0.00 0.00 80 1014.7
20260503090510 35 278 0.0 1.7 0.00 0.00 0.00 81 1013.3
20260503081505 36 295 0.9 3.5 0.00 0.00 0.00 80 1013.1
20260503081008 36 299 0.9 2.6 0.00 0.00 0.00 80 1013.1
20260503080504 36 301 0.9 5.2 0.00 0.00 0.00 80 1013.1
20260503072601 37 303 0.9 3.5 0.00 0.00 0.00 80 1012.8